Torna al catalogo

INTELSAT 14

AttivoComunicazioniGEO
NORAD 36097·PAYLOAD· XX

Lanciato Nov 23, 2009 da Cape Canaveral Space Force Station

Loading…

TLE

AggiornatoSource: CelesTrak SupGP

Epoca: Sep 14, 2026, 00:00 UTC

1 36097C 09064A   26257.00000000 -.00000183  00000+0  00000+0 0  2574
2 36097   0.1385  84.4890 0002392  82.8400 140.6624  1.00271814    13

Traccia INTELSAT 14 in tempo reale con AllMySat

Download on the App Store